Weather History for Wenatchee, WA

Change the Weather History Date:

Wednesday, July 3, 2013

  Actual Average Record
Temperature  
Mean Temperature 80 °F 64 °F  
Max Temperature 97 °F 78 °F 101 °F (1968)
Min Temperature 63 °F 49 °F 46 °F (2012)
Degree Days  
Heating Degree Days 0 3  
Month to date heating degree days 0 10  
Since 1 June heating degree days 193 197  
Since 1 July heating degree days 0 10  
Cooling Degree Days 15 2  
Month to date cooling degree days 41 6  
Year to date cooling degree days 64 30  
Since 1 June cooling degree days 60 25  
Growing Degree Days 32 (Base 50)    
Moisture  
Dew Point 39 °F    
Average Humidity 24    
Maximum Humidity 41    
Minimum Humidity 11    
Precipitation  
Precipitation 0.00 in 0.03 in 0.75 in (1965)
Month to date precipitation 0.00 0.10  
Year to date precipitation 7.75 9.48  
Snow  
Snow 0.00 in 0.00 in - ()
Month to date snowfall 0.0 0.0  
Since 1 June snowfall 0.0 0.0  
Since 1 July snowfall 0.0 0.0  
Snow Depth 0.00 in    
Sea Level Pressure  
Sea Level Pressure 29.91 in    
Wind  
Wind Speed 17 mph (WNW)    
Max Wind Speed 24 mph    
Max Gust Speed 29 mph    
Visibility 10 miles    
Events      
T = Trace of Precipitation, MM = Missing Value Source: NWS Daily Summary

Daily Weather History Graph

Daily Weather History Graph

Search for Another Location

Airport:

Trip Planner

Search our weather history database for the weather conditions in past years. The results will help you decide how hot, cold, wet, or windy it might be!

Date:

Astronomy

Jul. 03, 2013 Rise Set
Actual Time 5:09 AM PDT 9:00 PM PDT
Civil Twilight 4:29 AM PDT 9:40 PM PDT
Nautical Twilight 3:35 AM PDT 10:34 PM PDT
Astronomical Twilight 2:13 AM PDT 11:55 PM PDT
Moon 1:59 AM PDT (7/3) 5:08 PM PDT (7/3)
Length of Visible Light 17h 10m
Length of Day
15h 50m
Waning Crescent, 17% of the Moon is Illuminated
Jul 3
Waning Crescent
Jul 8
New
Jul 15
First Quarter
Jul 22
Full
Jul 29
Last Quarter

Hourly Weather History & Observations

Time (PDT) Temp. Dew Point Humidity Pressure Visibility Wind Dir Wind Speed Gust Speed Precip Events Conditions
12:55 AM 79.0 °F 46.0 °F 31% 29.88 in 10.0 mi NW 24.2 mph - N/A   Clear
1:55 AM 75.9 °F 48.0 °F 37% 29.89 in 10.0 mi WNW 16.1 mph - N/A   Clear
2:55 AM 75.9 °F 48.0 °F 37% 29.90 in 10.0 mi WNW 23.0 mph 28.8 mph N/A   Clear
3:55 AM 73.0 °F 48.0 °F 41% 29.93 in 10.0 mi NW 15.0 mph 20.7 mph N/A   Clear
4:55 AM 72.0 °F 46.0 °F 40% 29.94 in 10.0 mi WNW 20.7 mph 28.8 mph N/A   Clear
5:55 AM 71.1 °F 43.0 °F 36% 29.97 in 10.0 mi WNW 12.7 mph - N/A   Clear
6:55 AM 72.0 °F 43.0 °F 35% 29.98 in 10.0 mi WNW 16.1 mph - N/A   Clear
7:55 AM 73.9 °F 43.0 °F 33% 29.99 in 10.0 mi NW 15.0 mph - N/A   Clear
8:55 AM 77.0 °F 43.0 °F 30% 29.99 in 10.0 mi NW 9.2 mph - N/A   Clear
9:55 AM 80.1 °F 43.0 °F 27% 29.97 in 10.0 mi NW 11.5 mph - N/A   Clear
10:55 AM 82.9 °F 41.0 °F 23% 29.96 in 10.0 mi WNW 12.7 mph - N/A   Clear
11:55 AM 87.1 °F 39.9 °F 19% 29.94 in 10.0 mi NW 8.1 mph - N/A   Clear
12:55 PM 88.0 °F 35.1 °F 15% 29.94 in 10.0 mi Variable 5.8 mph - N/A   Clear
1:55 PM 90.0 °F 36.0 °F 15% 29.91 in 10.0 mi WSW 6.9 mph - N/A   Clear
2:55 PM 91.0 °F 36.0 °F 14% 29.89 in 10.0 mi West 6.9 mph - N/A   Clear
3:55 PM 93.0 °F 37.9 °F 15% 29.87 in 10.0 mi NW 10.4 mph - N/A   Clear
4:55 PM 93.0 °F 33.1 °F 12% 29.85 in 10.0 mi NW 12.7 mph - N/A   Clear
5:55 PM 91.9 °F 28.9 °F 11% 29.83 in 10.0 mi WNW 21.9 mph - N/A   Clear
6:55 PM 89.1 °F 27.0 °F 11% 29.84 in 10.0 mi WNW 20.7 mph - N/A   Clear
7:55 PM 86.0 °F 28.9 °F 13% 29.85 in 10.0 mi WNW 17.3 mph - N/A   Clear
8:55 PM 81.0 °F 28.9 °F 15% 29.84 in 10.0 mi WNW 17.3 mph 25.3 mph N/A   Clear
9:55 PM 78.1 °F 34.0 °F 20% 29.87 in 10.0 mi WNW 18.4 mph - N/A   Clear
10:55 PM 75.9 °F 36.0 °F 23% 29.88 in 10.0 mi WNW 17.3 mph - N/A   Clear
11:55 PM 73.9 °F 34.0 °F 23% 29.88 in 10.0 mi WNW 17.3 mph - N/A   Clear